Regional Weather Roundup
Issued by NWS San Diego, CA

Current Version | Previous Version | Text Only | Print | Product List | Glossary On
Versions: 1 2 3 4 5 6 7 8 9 10 11 12 13 14 15 16 17 18 19 20 21 22 23 24 25 26 27 28 29 30 31 32 33 34 35 36 37 38 39 40 41 42 43 44 45 46 47 48 49 50
000 ASUS46 KSGX 210211 RWRSGX SAN DIEGO HOURLY WEATHER ROUNDUP NATIONAL WEATHER SERVICE SAN DIEGO CA 700 PM PDT TUE APR 20 2021 NOTE: "FAIR" INDICATES FEW OR NO CLOUDS BELOW 12,000 FEET WITH NO SIGNIFICANT WEATHER AND/OR OBSTRUCTIONS TO VISIBILITY. CAZ042-043-060-061-PZZ750-775-210300- GREATER SAN DIEGO AREA CITY SKY/WX TMP DP RH WIND PRES REMARKS SAN DIEGO AP MOCLDY 61 49 64 S9 29.90F CHULA VISTA N/A 61 52 72 CALM 29.73F BROWN FIELD CLEAR 59 46 62 SW7 29.89S MONTGOMERY FLD CLEAR 59 48 67 S9 29.89S GILLESPIE FLD CLEAR 61 48 63 S9 29.89S LEMON GROVE N/A 58 52 80 CALM 29.86F $$ NORTH SAN DIEGO COUNTY CITY SKY/WX TMP DP RH WIND PRES REMARKS CAMP PENDLETON CLEAR 60 49 66 SW7 29.88S OCEANSIDE AP PTCLDY 58 50 75 S8 29.87S OCEANSIDE HBR N/A 59 52 77 E6 29.94F VISTA N/A 60 52 75 SW3 29.86F CARLSBAD PTCLDY 58 49 72 S9 29.87F ENCINITAS N/A 58 52 80 SW3 N/A LA JOLLA SCRIP N/A 58 52 80 CALM 29.88F FALLBROOK FAIR 57 50 77 SW7 29.88S ESCONDIDO N/A 63 52 68 W3 29.86F SAN MARCOS N/A 58 51 78 SW3 29.90F RANCHO BERNARD N/A 61 50 66 S3 29.86F POWAY N/A 62 50 64 SW3 29.89S $$ EAST SAN DIEGO COUNTY CITY SKY/WX TMP DP RH WIND PRES REMARKS RAMONA CLEAR 60 48 64 W7 29.87S LA MESA N/A 60 51 72 CALM 29.83S DESCANSO N N/A 62 48 60 SW3 29.83F $$ ORANGE COUNTY AND THE LOS ANGELES BASIN CITY SKY/WX TMP DP RH WIND PRES REMARKS JOHN WAYNE AP PTCLDY 60 50 69 S13 29.86S LAGUNA BEACH N/A 60 53 76 SW3 29.86S LAKE FOREST FR N/A 60 48 64 SW3 29.74S HUNTINGTON BCH N/A 59 53 80 S5 29.87S LOS ALAMITOS PTCLDY 58 52 80 S9 29.87S FULLERTON N/A 62 52 69 S8 29.85F LONG BEACH PTCLDY 58 49 72 S8 29.87S L.A. AP PTCLDY 59 51 75 W8 29.86F L.A. DOWNTOWN CLEAR 64 51 62 CALM 29.85S $$ THE INLAND EMPIRE CITY SKY/WX TMP DP RH WIND PRES REMARKS CORONA CLEAR 64 51 62 NW12 29.84R UPLAND AP FAIR 66 46 48 W13G21 29.84S CHINO PTCLDY 63 49 60 W18 29.84F ONTARIO PTCLDY 67 48 50 W14 29.83S RIVERSIDE AP CLEAR 65 50 58 W13 29.83S MORENO VALLEY N/A 70 51 50 CALM 29.78S MARCH ARB CLEAR 67 49 53 NW7 29.84S HORSETHIEF CYN N/A 66 47 49 NW2 29.80R PERRIS N/A 70 25 18 SE2 29.82F LAKE ELSINORE N/A 71 28 20 E1 29.75S HEMET AP FAIR 65 40 40 S14 29.84F FRENCH VALLEY FAIR 61 45 55 SW10 29.86S TEMECULA N/A 65 53 66 SW7 29.81F $$ SAN BERNARDINO AND RIVERSIDE COUNTY MOUNTAINS CITY SKY/WX TMP DP RH WIND PRES REMARKS BIG BEAR AP CLEAR 50 23 34 W12G22 29.98F BIG BEAR LAKE N/A 51 34 52 S10 29.80F LK ARROWHEAD N N/A 54 41 61 CALM 29.74S WRIGHTWOOD N/A 57 10 15 SW5 29.65F IDYLLWILD N/A 60 33 36 SE1 29.73F $$ SOUTHERN DESERT INCLUDING THE COACHELLA VALLEY CITY SKY/WX TMP DP RH WIND PRES REMARKS PALM SPRINGS CLEAR 87 29 12 NW16G25 29.67F THOUSAND PALMS N/A 85 34 16 W13 29.62F PALM DESERT N/A 90 18 7 CALM N/A INDIO N/A 89 34 14 NW5 29.64S THERMAL CLEAR 90 8 4 NW16G24 29.63F BORREGO AP FAIR 84 1 4 SW17G32 29.72S OCOTILLO WELLS N/A 86 33 15 NW12 29.60F CANEBRAKE N/A 83 -6 3 NW15 29.61F BLYTHE CLEAR 91 4 4 SW23 29.66F IMPERIAL AP CLEAR 88 21 8 S8 29.67R EL CENTRO NAS CLEAR 88 12 6 W14 29.68S YUMA AZ PTCLDY 86 20 9 S14 29.69S $$ UPPER DESERT CITY SKY/WX TMP DP RH WIND PRES REMARKS HESPERIA N/A 65 31 27 SW21 29.54F APPLE VALLEY N/A 68 33 26 NW23 29.76S PALMDALE PTCLDY 68 33 27 SW23G33 29.79F LANCASTER PTCLDY 66 39 37 SW28G35 29.79S EDWARDS AFB PTCLDY 71 37 29 SW23G30 29.74S GRAY BUTTE AP FAIR 72 25 17 W20 29.76F DAGGETT MOCLDY 80 24 12 SW23G31 29.70S 29 PALMS N CLEAR 79 25 13 SW21 29.76F 29 PALMS JTNP N/A 83 0 4 SW3 29.56F NEEDLES CLEAR 89 2 3 S12 29.65F $$ REGIONAL REPORTS CITY SKY/WX TMP DP RH WIND PRES REMARKS SANTA BARBARA CLEAR 60 52 74 S8 29.84F SANDBERG CLEAR 56 41 57 S13 29.90F LAS VEGAS NV CLOUDY 82 13 7 W8 29.65F PHOENIX AZ PTCLDY 89 14 6 W8 29.71F TIJUANA CLEAR 59 50 72 W6 29.92S ENSENADA NW N/A 58 32 38 S6 29.89S $$ OFFSHORE ISLANDS CITY SKY/WX TMP DP RH WIND PRES REMARKS CATALINA ARPT N/A 53 49 86 W7 29.88S SAN CLEMENTE I CLOUDY 57 32 38 NW6 29.89S SAN NICOLAS IS CLOUDY 51 47 86 NW22G31 29.88S $$ MARINE AND OFFSHORE BUOY REPORTS STATION/POSITION SKY/WX TEMP WIND PRES VSBY SWELL AIR SEA DIR/SP/G HT/PER/DIR (F) (DEG/KT/KT) (MB) (MI) (FT/S/D) TANNER BANKS 53 320/ 19/ 25 1012.9F 5/300/ 9 S CLEMENTE BASIN 58 61 280/ 8/ 14 1011.4F 5/290/ 9 SAN NICOLAS IS. 56 N/A 3/310/11 W. S. BARBARA CH 320/ 23/ 29 1012.9F M. S. BARBARA CH 57 57 280/ 16/ 21 1011.3F 3/270/11 S. MONICA BASIN 59 61 280/ 6/ 6 1011.2F 3/180/14 S PEDRO CHANNEL 61 N/A 2/270/11 OCEANSIDE OFFSHR 62 N/A 2/250/11 TORREY PINES OTR 62 N/A 2/280/11 SAN DIEGO BAY 65 1012.3 IMPERIAL BEACH 60 N/A 2/230/18 POINT LOMA SOUTH 63 N/A 2/270/11 $$

USA.gov is the U.S. government's official web portal to all federal, state and local government web resources and services.